This is the latest recevied weather packets stored in our database for station/object Krauchnws. If no packets are shown the sender has not sent any weather packets the latest 10 day(s).
| Time | Temp. | Humidity | Pressure | Rain* | Wind** | Luminosity | Snow |
|---|---|---|---|---|---|---|---|
| 1777512731 | 5.56° C | 50% | 1021.7 hPa | 0 mm | - | - | - |
| 1777510932 | 6.11° C | 47% | 1021.8 hPa | 0 mm | - | - | - |
| 1777509129 | 6.67° C | 47% | 1021.8 hPa | 0 mm | - | - | - |
| 1777507330 | 7.22° C | 47% | 1021.4 hPa | 0 mm | - | - | - |
| 1777505529 | 7.78° C | 47% | 1021.5 hPa | 0 mm | - | - | - |
| 1777503729 | 8.33° C | 46% | 1021.3 hPa | 0 mm | - | - | - |
| 1777501931 | 8.89° C | 45% | 1021.2 hPa | 0 mm | - | - | - |
| 1777498329 | 10° C | 41% | 1021 hPa | 0 mm | - | - | - |
| 1777496530 | 10.56° C | 40% | 1020.7 hPa | 0 mm | - | - | - |
| 1777494730 | 10.56° C | 39% | 1020.5 hPa | 0 mm | - | - | - |
| 1777492929 | 11.11° C | 37% | 1020.2 hPa | 0 mm | - | - | - |
| 1777491129 | 12.22° C | 37% | 1019.7 hPa | 0 mm | - | - | - |
| 1777489330 | 12.78° C | 38% | 1019.5 hPa | 0 mm | - | - | - |
| 1777487531 | 13.89° C | 36% | 1019.1 hPa | 0 mm | - | - | - |
| 1777485731 | 15° C | 35% | 1018.8 hPa | 0 mm | - | - | - |
| 1777483931 | 16.11° C | 36% | 1018.4 hPa | 0 mm | - | - | - |
| 1777482131 | 16.67° C | 34% | 1018.5 hPa | 0 mm | - | - | - |
| 1777480336 | 17.78° C | 34% | 1018.3 hPa | 0 mm | - | - | - |
| 1777478530 | 17.78° C | 35% | 1018 hPa | 0 mm | - | - | - |
| 1777476730 | 18.33° C | 35% | 1017.8 hPa | 0 mm | - | - | - |
| 1777474931 | 18.33° C | 35% | 1017.7 hPa | 0 mm | - | - | - |
| 1777473135 | 18.33° C | 33% | 1017.7 hPa | 0 mm | - | - | - |
| 1777471331 | 18.89° C | 35% | 1017.7 hPa | 0 mm | - | - | - |
| 1777469531 | 18.33° C | 33% | 1017.6 hPa | 0 mm | - | - | - |
| 1777467730 | 18.33° C | 36% | 1017.6 hPa | 0 mm | - | - | - |
* Rain since midnight (hover to see other rain measurements)
** Current wind speed in m/s (hover to see current wind gust speed)